CW2234 Weather Reports


Display with metric or nautical units.
time (UTC)temp
F
wind
direction
speed
MPH
gust
MPH
rain 1hr
in
rain 24hr
in
rain mn
in
humidity
%
barometer
mb
20260905104605 65 0 0.0 1.0 0.00 0.00 0.00 90 1012.9
20260905103109 65 0 0.0 0.0 0.00 0.00 0.00 90 1012.9
20260905101600 65 0 0.0 0.0 0.00 0.00 0.00 89 1012.9
20260905100120 65 0 0.0 0.0 0.00 0.00 0.00 89 1013.0
20260905094624 66 0 0.0 0.0 0.00 0.00 0.00 88 1013.0
20260905093102 66 0 0.0 0.0 0.00 0.00 0.00 88 1013.0
20260905091615 67 0 0.0 0.0 0.00 0.00 0.00 88 1013.1
20260905090057 67 0 0.0 1.0 0.00 0.00 0.00 87 1013.1
20260905084603 67 0 0.0 1.0 0.00 0.00 0.00 88 1013.1
20260905083102 67 0 0.0 2.0 0.00 0.00 0.00 87 1013.1
20260905081607 68 0 0.0 2.0 0.00 0.00 0.00 87 1013.3
20260905080101 68 0 0.0 2.0 0.00 0.00 0.00 87 1013.3
20260905074605 68 117 1.0 3.0 0.00 0.00 0.00 88 1013.3
20260905073105 68 119 0.0 2.0 0.00 0.00 0.00 88 1013.2
20260905071602 68 0 0.0 2.0 0.00 0.00 0.00 88 1013.1
20260905070104 68 0 0.0 2.0 0.00 0.00 0.00 88 1013.0
20260905064615 68 120 0.0 3.0 0.00 0.00 0.00 88 1013.0
20260905063059 68 0 0.0 2.0 0.00 0.00 0.00 88 1013.0
20260905061619 68 0 0.0 1.0 0.00 0.00 0.00 88 1013.1
20260905060104 69 129 0.0 2.0 0.00 0.00 0.00 88 1012.9
20260905054604 69 0 0.0 2.0 0.00 0.00 0.00 88 1012.8
20260905053055 69 0 0.0 3.0 0.00 0.00 0.00 88 1013.0
20260905051611 69 143 0.0 2.0 0.00 0.00 0.00 88 1013.1
20260905050107 69 0 0.0 3.0 0.00 0.00 0.00 88 1012.9
20260905044602 70 142 1.0 3.0 0.00 0.00 0.00 88 1013.0
20260905043055 70 0 0.0 3.0 0.00 0.00 0.00 87 1012.9
20260905041604 70 108 0.0 6.0 0.00 0.00 0.00 87 1012.7
20260905040103 70 131 0.0 5.0 0.00 0.00 0.00 86 1012.5
20260905034609 70 97 0.0 4.0 0.00 0.00 0.00 86 1012.3
20260905033111 70 142 1.0 5.0 0.00 0.00 0.00 85 1012.2
20260905031616 70 148 1.0 4.0 0.00 0.00 0.00 85 1012.2
20260905030055 71 137 1.0 7.0 0.00 0.00 0.00 84 1012.0
20260905024602 71 0 1.0 7.0 0.00 0.00 0.00 84 1011.8
20260905023137 71 159 0.0 10.0 0.00 0.00 0.00 83 1011.9
20260905021602 71 150 1.0 9.0 0.00 0.00 0.00 82 1012.0
20260905020055 72 129 1.0 8.0 0.00 0.00 0.00 81 1011.9
20260905014616 73 0 0.0 8.0 0.00 0.00 0.00 80 1012.1
20260905013057 74 166 1.0 7.0 0.00 0.00 0.00 77 1012.0
20260905011607 75 0 2.0 9.0 0.00 0.00 0.00 76 1012.2
20260905010107 75 147 2.0 8.0 0.00 0.00 0.00 75 1012.2
20260905004601 76 121 2.0 11.0 0.00 0.00 0.00 74 1012.2
20260905003058 76 163 1.0 7.0 0.00 0.00 0.00 73 1012.2
20260905001610 76 0 1.0 8.0 0.00 0.00 0.00 73 1012.2
20260905000119 77 173 1.0 8.0 0.00 0.00 0.00 73 1012.3
20260904234601 77 156 1.0 9.0 0.00 0.00 0.00 73 1012.2
20260904233100 77 135 4.0 11.0 0.00 0.00 0.00 72 1012.1
20260904231600 77 132 3.0 8.0 0.00 0.00 0.00 72 1012.1
20260904230105 78 0 1.0 6.0 0.00 0.00 0.00 70 1012.1
20260904224606 78 130 2.0 10.0 0.00 0.00 0.00 68 1012.1
20260904223058 78 89 3.0 10.0 0.00 0.00 0.00 68 1012.0
20260904221605 78 130 3.0 12.0 0.00 0.00 0.00 68 1012.1
20260904220119 79 103 3.0 9.0 0.00 0.00 0.00 67 1012.2
20260904214600 78 130 2.0 9.0 0.00 0.00 0.00 67 1012.3
20260904213107 78 106 2.0 10.0 0.00 0.00 0.00 68 1012.4
20260904211606 79 126 2.0 10.0 0.00 0.00 0.00 66 1012.4
20260904210117 80 151 1.0 9.0 0.00 0.00 0.00 65 1012.4
20260904204604 80 137 1.0 5.0 0.00 0.00 0.00 65 1012.6
20260904203102 80 113 2.0 7.0 0.00 0.00 0.00 64 1012.5
20260904201602 79 49 1.0 7.0 0.00 0.00 0.00 65 1012.7
20260904194610 77 314 2.0 6.0 0.00 0.00 0.00 64 1012.9
20260904193116 77 316 5.0 12.0 0.00 0.00 0.00 65 1013.0
20260904191604 76 14 2.0 11.0 0.00 0.00 0.00 67 1013.4
20260904190058 76 301 4.0 12.0 0.00 0.00 0.00 68 1013.5
20260904184621 76 39 5.0 11.0 0.00 0.00 0.00 67 1013.8
20260904183102 76 336 3.0 9.0 0.00 0.00 0.00 68 1013.7
20260904181610 75 255 4.0 10.0 0.00 0.00 0.00 70 1013.7
20260904180119 74 309 4.0 11.0 0.00 0.00 0.00 71 1013.8
20260904174613 75 347 5.0 10.0 0.00 0.00 0.00 71 1013.9
20260904173101 75 355 4.0 10.0 0.00 0.00 0.00 70 1013.7
20260904171606 73 65 3.0 7.0 0.00 0.00 0.00 73 1013.7
20260904170105 73 286 3.0 7.0 0.00 0.00 0.00 72 1013.6
20260904164602 73 333 2.0 6.0 0.00 0.00 0.00 74 1013.4
20260904163110 73 325 4.0 7.0 0.00 0.00 0.00 75 1013.3
20260904161603 72 308 3.0 9.0 0.00 0.00 0.00 77 1013.2
20260904160106 72 328 2.0 6.0 0.00 0.00 0.00 78 1013.2
20260904154600 71 319 2.0 5.0 0.00 0.00 0.00 81 1013.2
20260904153127 70 13 3.0 8.0 0.00 0.00 0.00 82 1013.2
20260904151602 69 318 3.0 9.0 0.00 0.00 0.00 83 1013.1
20260904150100 68 309 3.0 7.0 0.00 0.00 0.00 85 1013.1
20260904144600 68 279 2.0 6.0 0.00 0.00 0.00 86 1013.0
20260904143058 66 0 0.0 2.0 0.00 0.00 0.00 88 1012.8
20260904141602 65 240 0.0 2.0 0.00 0.00 0.00 89 1012.7
20260904140104 65 0 0.0 3.0 0.00 0.00 0.00 89 1012.6
20260904134603 65 242 1.0 3.0 0.00 0.00 0.00 90 1012.4
20260904133105 65 235 1.0 3.0 0.00 0.00 0.00 90 1012.4
20260904131604 64 170 1.0 4.0 0.00 0.00 0.00 90 1012.4
20260904124608 64 0 0.0 1.0 0.00 0.00 0.00 89 1012.3
20260904123116 64 0 0.0 0.0 0.00 0.00 0.00 89 1012.2
20260904121603 64 0 0.0 0.0 0.00 0.00 0.00 89 1012.1
20260904120110 64 0 0.0 1.0 0.00 0.00 0.00 88 1012.1
20260904114605 65 0 0.0 0.0 0.00 0.00 0.00 88 1012.1
20260904113103 65 0 0.0 0.0 0.00 0.00 0.00 88 1012.2
20260904111606 65 0 0.0 2.0 0.00 0.00 0.00 87 1012.1
20260904110110 66 0 0.0 1.0 0.00 0.00 0.00 87 1012.2